TimeCDT,TemperatureF,Dew PointF,Humidity,Sea Level PressureIn,VisibilityMPH,Wind Direction,Wind SpeedMPH,Gust SpeedMPH,PrecipitationIn,Events,Conditions,WindDirDegrees,DateUTC
12:53 AM,60.1,45.0,57,30.03,10.0,South,10.4,-,N/A,,Clear,170,2013-04-23 05:53:00
1:53 AM,59.0,46.0,62,30.02,10.0,South,9.2,-,N/A,,Partly Cloudy,170,2013-04-23 06:53:00
2:53 AM,57.2,46.4,67,30.00,10.0,SSE,9.2,-,N/A,,Scattered Clouds,160,2013-04-23 07:53:00
3:53 AM,55.0,46.9,74,30.00,10.0,SSE,5.8,-,N/A,,Clear,160,2013-04-23 08:53:00
4:53 AM,55.4,46.4,72,30.00,10.0,SSE,8.1,-,N/A,,Clear,150,2013-04-23 09:53:00
5:53 AM,55.9,46.9,72,29.99,10.0,SSE,10.4,-,N/A,,Mostly Cloudy,150,2013-04-23 10:53:00
6:53 AM,57.0,48.9,74,29.99,10.0,SSE,8.1,-,N/A,,Clear,160,2013-04-23 11:53:00
7:53 AM,57.0,50.0,77,29.99,10.0,SE,9.2,-,N/A,,Clear,140,2013-04-23 12:53:00
8:53 AM,60.1,53.1,78,29.99,10.0,SSE,8.1,-,N/A,,Clear,160,2013-04-23 13:53:00
9:53 AM,61.0,55.0,81,30.05,10.0,SSW,5.8,-,N/A,,Overcast,210,2013-04-23 14:53:00
10:50 AM,62.6,57.2,82,30.03,2.5,South,9.2,-,N/A,,Haze,180,2013-04-23 15:50:00
10:53 AM,63.0,57.0,81,30.03,1.8,South,8.1,-,N/A,,Haze,190,2013-04-23 15:53:00
11:06 AM,62.6,57.2,82,30.04,10.0,SSW,10.4,-,N/A,,Mostly Cloudy,200,2013-04-23 16:06:00
11:53 AM,64.9,59.0,81,29.99,10.0,SSE,10.4,-,N/A,,Overcast,160,2013-04-23 16:53:00
12:53 PM,68.0,60.1,76,29.96,9.0,South,21.9,25.3,N/A,,Overcast,170,2013-04-23 17:53:00
1:53 PM,70.0,60.1,71,29.92,9.0,South,21.9,28.8,N/A,,Mostly Cloudy,190,2013-04-23 18:53:00
2:15 PM,69.8,59.0,68,29.92,10.0,South,21.9,31.1,N/A,,Mostly Cloudy,190,2013-04-23 19:15:00
2:53 PM,70.0,59.0,68,29.91,10.0,South,18.4,29.9,N/A,,Mostly Cloudy,190,2013-04-23 19:53:00
3:53 PM,69.1,57.9,68,29.88,10.0,South,15.0,24.2,N/A,,Overcast,170,2013-04-23 20:53:00
4:53 PM,69.1,59.0,70,29.86,10.0,South,12.7,21.9,N/A,,Overcast,180,2013-04-23 21:53:00
5:53 PM,69.1,57.9,68,29.84,10.0,South,15.0,-,N/A,,Overcast,180,2013-04-23 22:53:00
6:53 PM,70.0,57.9,65,29.83,10.0,SSW,11.5,-,N/A,,Overcast,200,2013-04-23 23:53:00
7:53 PM,70.0,57.9,65,29.84,10.0,SSW,13.8,21.9,N/A,,Overcast,200,2013-04-24 00:53:00
8:53 PM,69.1,60.1,73,29.86,10.0,SSW,15.0,-,N/A,,Overcast,210,2013-04-24 01:53:00
9:22 PM,50.0,46.4,87,29.92,7.0,NNW,24.2,33.4,0.03,Rain,Rain,340,2013-04-24 02:22:00
9:40 PM,48.2,44.6,87,29.94,8.0,NNW,21.9,27.6,0.07,Rain,Light Rain,340,2013-04-24 02:40:00
9:53 PM,48.0,44.1,86,29.95,10.0,NNW,16.1,23.0,0.07,,Overcast,340,2013-04-24 02:53:00
10:01 PM,48.2,44.6,87,29.95,10.0,North,16.1,-,N/A,,Overcast,360,2013-04-24 03:01:00
10:53 PM,46.0,42.1,86,29.96,10.0,NNW,18.4,24.2,N/A,,Overcast,340,2013-04-24 03:53:00
11:36 PM,46.4,42.8,87,29.96,10.0,NNW,11.5,-,N/A,,Overcast,330,2013-04-24 04:36:00
11:53 PM,45.0,41.0,86,29.96,10.0,NNW,12.7,-,N/A,,Overcast,340,2013-04-24 04:53:00